TimeCDT,TemperatureF,Dew PointF,Humidity,Sea Level PressureIn,VisibilityMPH,Wind Direction,Wind SpeedMPH,Gust SpeedMPH,PrecipitationIn,Events,Conditions,WindDirDegrees,DateUTC
12:14 AM,42.8,42.8,100,29.29,10.0,WSW,10.4,-,N/A,,Overcast,250,2012-10-18 05:14:00
12:34 AM,42.8,42.8,100,29.29,10.0,West,9.2,-,N/A,,Overcast,260,2012-10-18 05:34:00
12:54 AM,42.8,42.8,100,29.28,2.5,West,8.1,16.1,N/A,,Overcast,260,2012-10-18 05:54:00
1:14 AM,42.8,42.8,100,29.28,3.0,WSW,11.5,-,N/A,,Overcast,240,2012-10-18 06:14:00
1:34 AM,42.8,42.8,100,29.27,2.0,WSW,9.2,-,N/A,,Overcast,250,2012-10-18 06:34:00
1:54 AM,42.8,42.8,100,29.26,2.0,WSW,8.1,-,N/A,,Overcast,250,2012-10-18 06:54:00
2:14 AM,42.8,42.8,100,29.26,2.5,West,9.2,-,N/A,,Overcast,260,2012-10-18 07:14:00
2:34 AM,42.8,42.8,100,29.26,2.5,West,9.2,-,N/A,,Overcast,260,2012-10-18 07:34:00
2:54 AM,42.8,42.8,100,29.26,2.5,West,10.4,-,N/A,,Overcast,260,2012-10-18 07:54:00
3:15 AM,42.8,42.8,100,29.26,4.0,West,9.2,-,N/A,,Overcast,260,2012-10-18 08:15:00
3:34 AM,42.8,42.8,100,29.25,7.0,West,11.5,-,N/A,,Overcast,260,2012-10-18 08:34:00
3:54 AM,42.8,42.8,100,29.24,5.0,WSW,9.2,-,N/A,,Overcast,250,2012-10-18 08:54:00
4:13 AM,42.8,42.8,100,29.24,7.0,WSW,9.2,-,N/A,,Overcast,250,2012-10-18 09:13:00
4:34 AM,42.8,42.8,100,29.23,10.0,West,8.1,-,N/A,,Overcast,260,2012-10-18 09:34:00
4:54 AM,42.8,42.8,100,29.22,7.0,WSW,8.1,-,N/A,,Overcast,250,2012-10-18 09:54:00
5:14 AM,42.8,42.8,100,29.22,7.0,West,9.2,-,N/A,,Light Drizzle,260,2012-10-18 10:14:00
5:34 AM,42.8,42.8,100,29.22,5.0,West,10.4,-,N/A,,Light Drizzle,260,2012-10-18 10:34:00
5:54 AM,42.8,42.8,100,29.21,7.0,WSW,8.1,-,0.01,,Drizzle,250,2012-10-18 10:54:00
6:34 AM,42.8,42.8,100,29.21,4.0,WSW,8.1,-,N/A,,Light Drizzle,240,2012-10-18 11:34:00
6:54 AM,42.8,42.8,100,29.20,7.0,WSW,10.4,-,N/A,,Overcast,250,2012-10-18 11:54:00
7:14 AM,42.8,41.0,93,29.21,10.0,West,11.5,-,N/A,,Overcast,260,2012-10-18 12:14:00
7:34 AM,41.0,41.0,100,29.20,10.0,WSW,8.1,-,N/A,,Overcast,250,2012-10-18 12:34:00
7:54 AM,41.0,41.0,100,29.20,5.0,WSW,6.9,-,N/A,,Overcast,250,2012-10-18 12:54:00
8:14 AM,41.0,41.0,100,29.21,10.0,WSW,5.8,-,N/A,,Light Drizzle,240,2012-10-18 13:14:00
8:34 AM,41.0,41.0,100,29.21,5.0,WSW,6.9,-,N/A,Rain,Rain,240,2012-10-18 13:34:00
8:54 AM,41.0,41.0,100,29.20,10.0,SW,10.4,-,N/A,,Overcast,230,2012-10-18 13:54:00
9:14 AM,42.8,41.0,93,29.20,10.0,SW,8.1,-,N/A,,Overcast,220,2012-10-18 14:14:00
9:34 AM,42.8,41.0,93,29.19,10.0,WSW,6.9,-,N/A,,Overcast,240,2012-10-18 14:34:00
9:54 AM,42.8,41.0,93,29.20,5.0,SW,5.8,-,N/A,,Overcast,230,2012-10-18 14:54:00
10:14 AM,42.8,41.0,93,29.19,5.0,SW,6.9,-,N/A,,Overcast,230,2012-10-18 15:14:00
10:34 AM,42.8,42.8,100,29.19,10.0,SSW,5.8,-,N/A,,Overcast,210,2012-10-18 15:34:00
10:54 AM,42.8,41.0,93,29.19,10.0,WSW,3.5,-,N/A,,Overcast,240,2012-10-18 15:54:00
11:14 AM,42.8,42.8,100,29.19,10.0,SSW,5.8,-,N/A,,Overcast,210,2012-10-18 16:14:00
11:34 AM,42.8,42.8,100,29.20,10.0,Calm,Calm,-,N/A,,Overcast,0,2012-10-18 16:34:00
11:54 AM,42.8,42.8,100,29.20,7.0,Calm,Calm,-,N/A,,Overcast,0,2012-10-18 16:54:00
12:14 PM,44.6,42.8,93,29.20,10.0,Calm,Calm,-,N/A,,Overcast,0,2012-10-18 17:14:00
12:34 PM,44.6,42.8,93,29.21,10.0,Calm,Calm,-,N/A,,Overcast,0,2012-10-18 17:34:00
12:54 PM,44.6,42.8,93,29.21,10.0,Calm,Calm,-,N/A,,Overcast,0,2012-10-18 17:54:00
1:14 PM,44.6,42.8,93,29.22,10.0,Calm,Calm,-,0.01,,Overcast,0,2012-10-18 18:14:00
1:35 PM,44.6,41.0,87,29.22,10.0,Calm,Calm,-,0.01,,Overcast,0,2012-10-18 18:35:00
1:54 PM,44.6,41.0,87,29.23,10.0,Calm,Calm,-,0.01,,Overcast,0,2012-10-18 18:54:00
2:14 PM,44.6,41.0,87,29.24,10.0,Calm,Calm,-,N/A,,Overcast,0,2012-10-18 19:14:00
2:33 PM,44.6,41.0,87,29.25,10.0,Calm,Calm,-,N/A,Rain,Light Rain,0,2012-10-18 19:33:00
2:54 PM,44.6,42.8,93,29.26,7.0,NW,3.5,-,N/A,,Drizzle,320,2012-10-18 19:54:00
3:14 PM,44.6,42.8,93,29.26,7.0,Calm,Calm,-,N/A,,Overcast,0,2012-10-18 20:14:00
3:34 PM,44.6,42.8,93,29.27,10.0,North,3.5,-,N/A,,Overcast,360,2012-10-18 20:34:00
3:54 PM,44.6,42.8,93,29.28,7.0,North,3.5,-,N/A,,Overcast,360,2012-10-18 20:54:00
4:14 PM,44.6,42.8,93,29.29,10.0,North,3.5,-,N/A,,Overcast,350,2012-10-18 21:14:00
4:34 PM,44.6,42.8,93,29.30,10.0,NNW,3.5,-,N/A,,Overcast,340,2012-10-18 21:34:00
4:54 PM,44.6,42.8,93,29.30,10.0,NNW,3.5,-,N/A,,Scattered Clouds,330,2012-10-18 21:54:00
5:14 PM,46.4,42.8,87,29.31,10.0,North,5.8,-,N/A,,Mostly Cloudy,350,2012-10-18 22:14:00
5:34 PM,46.4,42.8,87,29.31,10.0,NNW,3.5,-,N/A,,Overcast,330,2012-10-18 22:34:00
5:54 PM,46.4,42.8,87,29.31,10.0,NW,4.6,-,N/A,,Overcast,310,2012-10-18 22:54:00
6:14 PM,44.6,42.8,93,29.32,10.0,Calm,Calm,-,N/A,,Mostly Cloudy,0,2012-10-18 23:14:00
6:34 PM,42.8,41.0,93,29.33,10.0,Calm,Calm,-,N/A,,Clear,0,2012-10-18 23:34:00
6:54 PM,39.2,39.2,100,29.33,10.0,Calm,Calm,-,N/A,,Scattered Clouds,0,2012-10-18 23:54:00
7:14 PM,39.2,39.2,100,29.34,10.0,Calm,Calm,-,N/A,,Mostly Cloudy,0,2012-10-19 00:14:00
7:34 PM,39.2,39.2,100,29.34,10.0,Calm,Calm,-,N/A,,Overcast,0,2012-10-19 00:34:00
7:54 PM,41.0,41.0,100,29.35,10.0,Calm,Calm,-,N/A,,Mostly Cloudy,0,2012-10-19 00:54:00
8:14 PM,41.0,41.0,100,29.36,10.0,Calm,Calm,-,N/A,,Scattered Clouds,0,2012-10-19 01:14:00
8:34 PM,42.8,42.8,100,29.36,10.0,Calm,Calm,-,N/A,,Mostly Cloudy,0,2012-10-19 01:34:00
8:54 PM,42.8,42.8,100,29.37,10.0,Calm,Calm,-,N/A,,Overcast,0,2012-10-19 01:54:00
9:14 PM,44.6,42.8,93,29.37,10.0,Calm,Calm,-,N/A,,Overcast,0,2012-10-19 02:14:00
9:34 PM,44.6,42.8,93,29.37,10.0,Calm,Calm,-,N/A,,Overcast,0,2012-10-19 02:34:00
9:54 PM,42.8,42.8,100,29.37,10.0,Calm,Calm,-,N/A,,Mostly Cloudy,0,2012-10-19 02:54:00
10:15 PM,42.8,42.8,100,29.37,10.0,Calm,Calm,-,N/A,,Mostly Cloudy,0,2012-10-19 03:15:00
10:34 PM,41.0,41.0,100,29.37,10.0,Calm,Calm,-,N/A,,Scattered Clouds,0,2012-10-19 03:34:00
10:54 PM,42.8,41.0,93,29.37,10.0,Calm,Calm,-,N/A,,Clear,0,2012-10-19 03:54:00
11:14 PM,41.0,41.0,100,29.37,10.0,Calm,Calm,-,N/A,,Clear,0,2012-10-19 04:14:00
11:34 PM,37.4,37.4,100,29.39,5.0,Calm,Calm,-,N/A,,Clear,0,2012-10-19 04:34:00
11:55 PM,39.2,39.2,100,29.39,7.0,Calm,Calm,-,N/A,,Scattered Clouds,0,2012-10-19 04:55:00